Lexington Weather

Lexington, Massachusetts, USA

44°F
4/22/2024 9:02am 
  • Lexington Conditions: Clear
  • Temperature: 43.7°F / 6.5°CWarmer 3.2°F than last hour.
  • Dew Point: 27.1°FDecreased 0.9°Fsince last hour.
  • Relative Humidity: 52%Decreased 9.0% since last hour.
  • Wind: Calm, 10-min avg: Calm, gust: 2 mph
  • Barometer: 29.96 in Steady
  • Visibility: 10 miles
  • Rain Today: 0.00 in
  •   

Regional Weather Roundup
for Boston, MA

        
000
ASUS41 KBOX 170510
RWRBOX

REGIONAL WEATHER ROUNDUP
NATIONAL WEATHER SERVICE BOSTON/NORTON MA
100 AM EDT WED APR 17 2024

NOTE:  "FAIR" INDICATES FEW OR NO CLOUDS BELOW 12,000 FEET WITH NO 
SIGNIFICANT WEATHER AND/OR OBSTRUCTIONS TO VISIBILITY.

MAZALL-170600-
EASTERN MASSACHUSETTS
  
CITY           SKY/WX    TMP DP  RH WIND       PRES   REMARKS
BOSTON         CLEAR     49  37  63 NE8       30.19R                  
BEVERLY        CLEAR     48  34  58 CALM      30.19R                  
LAWRENCE       CLEAR     47  32  56 N3        30.21R                  
BEDFORD        CLEAR     49  32  52 NE7       30.19R                  
NORWOOD        CLEAR     55  33  43 N5        30.18R                  
MARSHFIELD     CLEAR     50  39  66 NE8G15    30.17R                  
PLYMOUTH       CLEAR     51  37  58 NE12      30.15R                  
TAUNTON        CLEAR     46  37  71 VRB3      30.16R                  
NEW BEDFORD    CLEAR     51  36  56 NW6       30.14R                  
$$

MAZALL-170600-
CAPE COD AND THE ISLANDS
  
CITY           SKY/WX    TMP DP  RH WIND       PRES   REMARKS
FALMOUTH       CLEAR     43  39  87 CALM      30.15S                  
HYANNIS        MOCLDY    45  41  86 NE3       30.13R                  
CHATHAM        CLEAR     46  44  93 N6        30.15R                  
PROVINCETOWN   CLEAR     49  40  71 NE14      30.18R                  
NANTUCKET      CLEAR     48  43  82 W13       30.13F                  
MARTHAS VNYRD  CLEAR     49  40  71 W7        30.14S                  
$$
 
MAZALL-170600-
CENTRAL AND WESTERN MASSACHUSETTS
  
CITY           SKY/WX    TMP DP  RH WIND       PRES   REMARKS
WORCESTER      CLEAR     50  30  46 NE8       30.18R                  
FITCHBURG      CLEAR     46  33  60 NW3       30.20R                  
ORANGE         CLEAR     40  35  83 CALM      30.20R                  
SPRINGFIELD    CLEAR     48  32  53 NE5       30.16R                  
WESTFIELD      CLEAR     51  30  44 N7        30.18R                  
NORTH ADAMS    CLEAR     39  34  82 CALM      30.20R                  
PITTSFIELD     CLEAR     41  29  62 W6        30.17R                  
$$
 
RIZALL-170600-
RHODE ISLAND
  
CITY           SKY/WX    TMP DP  RH WIND       PRES   REMARKS
PROVIDENCE     CLEAR     55  33  43 N12       30.16R                  
NEWPORT        CLEAR     46  36  68 CALM      30.15S                  
BLOCK ISLAND   CLEAR     49  38  65 W9        30.17S                  
SMITHFIELD     CLEAR     51  33  50 NE12      30.17R                  
WESTERLY       CLEAR     52  40  63 SW5       30.16S                  
$$
 
CTZALL-170600-
CONNECTICUT
  
CITY           SKY/WX    TMP DP  RH WIND       PRES   REMARKS
BRADLEY INTL   CLEAR     55  28  35 NW5       30.18R                  
HARTFORD       CLEAR     51  36  56 VRB3      30.17R                  
PLAINVILLE     FAIR      46  38  75 CALM      30.17R                  
BRIDGEPORT     PTCLDY    52  42  69 W3        30.18R                  
DANBURY        PTCLDY    47  36  65 CALM      30.19R                  
GROTON         CLEAR     50  41  71 CALM      30.17R                  
NEW HAVEN      PTCLDY    54  44  69 CALM      30.18R                  
CHESTER        PTCLDY    48  30  49 CALM      30.17S                  
MERIDEN        CLEAR     46  35  65 CALM      30.17R                  
WILLIMANTIC    CLEAR     42  36  79 CALM      30.17S                  
OXFORD         PTCLDY    48  30  49 N6        30.18S                  
$$

MEZ002-015-021-024-NHZ003-005-008-011-012-014-VTZ005-008-170600-
NORTHERN NEW ENGLAND
  
CITY           SKY/WX    TMP DP  RH WIND       PRES   REMARKS
PORTLAND ME    CLEAR     42  28  57 N7        30.21R                  
BANGOR ME      CLOUDY    39  25  57 W5        30.17R                  
CONCORD NH     CLEAR     46  31  55 NW5       30.20R                  
MANCHESTER NH  CLEAR     50  31  48 N5        30.18R                  
NASHUA NH      CLEAR     49  32  52 N3        30.21R                  
PORTSMOUTH NH  CLEAR     50  30  46 N3        30.19R                  
JAFFREY NH     CLEAR     42  34  73 N3        30.19R                  
KEENE NH       CLEAR     40  35  83 CALM      30.20R                  
BURLINGTON VT  PTCLDY    41  25  53 N3        30.24R                  
MT. WASHINGTON BLWGSNOW  18  18 100 NW58        N/A  VSB 1/16WCI  -7  
$$

NYZ052-076-170600-
EASTERN NEW YORK
  
CITY           SKY/WX    TMP DP  RH WIND       PRES   REMARKS
ALBANY         CLEAR     49  33  54 N7        30.22R                  
NEW YORK CITY  PTCLDY    54  41  61 NE7       30.18R                  
$$
 
ANZALL-170600-
MARINE OBSERVATIONS
  
STATION/POSITION TIME  TEMP    WIND        PRES    VSBY  WAVE
                       AIR SEA DIR/SP/G                  HT/PER
                 (UTC) (F)     (DEG/KT/KT) (MB)    (MI)  (FT/S)
BOSTON BUOY      0450   49      40/ 12/ 14 1022.2R         2/10
BUZZARDS BAY     0400   51     260/ 18/ 20 1021.2R
NANTUCKET SOUND  0450   49 47  270/  6/  6 1020.1R         1
MASS BAY-STELLWA 0304   50 46   40/  8/ 10 1020.9R  1 7/8  2/11
ISLE OF SHOALS   0400   50      30/ 13/ 14 1021.3R
S OF BLOCK IS    0426      45                N/A           4/ 8
$$

......................KEY.........................
  SKY/WX - SKY CONDITION/PRESENT WEATHER
  TMP    - TEMPERATURE IN FAHRENHEIT
  DWPT   - DEWPOINT IN FAHRENHEIT
  RH     - RELATIVE HUMIDITY IN PERCENT
  WIND   - DIRECTION AND SPEED IN MPH
  PRES   - MEAN SEA LEVEL PRESSURE IN INCHES OF HG
  WCI    - WIND CHILL INDEX
  VSB    - VISIBILITY IN MILES
  HX     - HEAT INDEX
  TC     - TEMPERATURE IN CELSIUS
  VRB    - VARIABLE WIND DIRECTION
  N/A    - NOT AVAILABLE
  
      

Other recent Regional Weather Roundups

Mon Apr 22, 8:10am EDT

Mon Apr 22, 7:10am EDT

Mon Apr 22, 6:10am EDT

Mon Apr 22, 5:10am EDT

Mon Apr 22, 4:10am EDT

Mon Apr 22, 3:10am EDT

Mon Apr 22, 2:10am EDT

Mon Apr 22, 1:10am EDT

Mon Apr 22, 12:10am EDT

Sun Apr 21, 11:10pm EDT

Sun Apr 21, 10:10pm EDT

Sun Apr 21, 9:10pm EDT

Sun Apr 21, 8:10pm EDT

Sun Apr 21, 7:10pm EDT

Sun Apr 21, 6:10pm EDT

Sun Apr 21, 5:10pm EDT

Sun Apr 21, 4:10pm EDT

Sun Apr 21, 3:10pm EDT

Sun Apr 21, 2:10pm EDT

Sun Apr 21, 1:10pm EDT

Sun Apr 21, 12:10pm EDT

Sun Apr 21, 11:10am EDT

Sun Apr 21, 10:10am EDT

Sun Apr 21, 9:10am EDT

Sun Apr 21, 8:10am EDT

Sun Apr 21, 7:10am EDT

Sun Apr 21, 6:10am EDT

Sun Apr 21, 5:10am EDT

Sun Apr 21, 4:10am EDT

Sun Apr 21, 3:10am EDT

Sun Apr 21, 2:10am EDT

Sun Apr 21, 1:10am EDT

Sun Apr 21, 12:10am EDT

Sat Apr 20, 11:10pm EDT

Sat Apr 20, 10:10pm EDT

Sat Apr 20, 9:10pm EDT

Sat Apr 20, 8:10pm EDT

Sat Apr 20, 7:10pm EDT

Sat Apr 20, 6:10pm EDT

Sat Apr 20, 5:10pm EDT

Sat Apr 20, 4:10pm EDT

Sat Apr 20, 3:10pm EDT

Sat Apr 20, 2:10pm EDT

Sat Apr 20, 1:10pm EDT

Sat Apr 20, 12:10pm EDT

Sat Apr 20, 11:10am EDT

Sat Apr 20, 10:10am EDT

Sat Apr 20, 9:10am EDT

Sat Apr 20, 8:10am EDT

Sat Apr 20, 7:10am EDT

Sat Apr 20, 6:10am EDT

Sat Apr 20, 5:10am EDT

Sat Apr 20, 4:10am EDT

Sat Apr 20, 3:10am EDT

Sat Apr 20, 2:10am EDT

Sat Apr 20, 1:10am EDT

Sat Apr 20, 12:10am EDT

Fri Apr 19, 11:10pm EDT

Fri Apr 19, 10:10pm EDT

Fri Apr 19, 9:10pm EDT

Fri Apr 19, 8:10pm EDT

Fri Apr 19, 7:10pm EDT

Fri Apr 19, 6:10pm EDT

Fri Apr 19, 5:10pm EDT

Fri Apr 19, 4:10pm EDT

Fri Apr 19, 3:10pm EDT

Fri Apr 19, 2:10pm EDT

Fri Apr 19, 1:10pm EDT

Fri Apr 19, 12:10pm EDT

Fri Apr 19, 11:10am EDT

Fri Apr 19, 10:10am EDT

Fri Apr 19, 9:10am EDT

Fri Apr 19, 8:10am EDT

Fri Apr 19, 7:10am EDT

Fri Apr 19, 6:10am EDT

Fri Apr 19, 5:10am EDT

Fri Apr 19, 4:10am EDT

Fri Apr 19, 3:10am EDT

Fri Apr 19, 2:10am EDT

Fri Apr 19, 1:10am EDT

Fri Apr 19, 12:10am EDT

Thu Apr 18, 11:10pm EDT

Thu Apr 18, 10:10pm EDT

Thu Apr 18, 9:10pm EDT

Thu Apr 18, 8:10pm EDT

Thu Apr 18, 7:10pm EDT

Thu Apr 18, 6:10pm EDT

Thu Apr 18, 5:10pm EDT

Thu Apr 18, 4:10pm EDT

Thu Apr 18, 3:10pm EDT

Thu Apr 18, 2:10pm EDT

Thu Apr 18, 1:10pm EDT

Thu Apr 18, 12:10pm EDT

Thu Apr 18, 11:10am EDT

Thu Apr 18, 10:10am EDT

Thu Apr 18, 9:10am EDT

Thu Apr 18, 8:10am EDT

Thu Apr 18, 7:10am EDT

Thu Apr 18, 6:10am EDT

Thu Apr 18, 5:10am EDT

Thu Apr 18, 4:10am EDT

Thu Apr 18, 3:10am EDT

Thu Apr 18, 2:10am EDT

Thu Apr 18, 1:10am EDT

Thu Apr 18, 12:10am EDT

Wed Apr 17, 11:10pm EDT

Wed Apr 17, 10:10pm EDT

Wed Apr 17, 9:10pm EDT

Wed Apr 17, 8:10pm EDT

Wed Apr 17, 7:10pm EDT

Wed Apr 17, 6:10pm EDT

Wed Apr 17, 5:10pm EDT

Wed Apr 17, 4:10pm EDT

Wed Apr 17, 3:10pm EDT

Wed Apr 17, 2:10pm EDT

Wed Apr 17, 1:10pm EDT

Wed Apr 17, 12:10pm EDT

Wed Apr 17, 11:10am EDT

Wed Apr 17, 10:10am EDT

Wed Apr 17, 9:10am EDT

Wed Apr 17, 8:10am EDT

Wed Apr 17, 7:10am EDT

Wed Apr 17, 6:10am EDT

Wed Apr 17, 5:10am EDT

Wed Apr 17, 4:10am EDT

Wed Apr 17, 3:10am EDT

Wed Apr 17, 2:10am EDT

Wed Apr 17, 12:10am EDT

Tue Apr 16, 11:10pm EDT

Tue Apr 16, 10:10pm EDT

Tue Apr 16, 9:10pm EDT

Tue Apr 16, 8:10pm EDT

Tue Apr 16, 7:10pm EDT

Tue Apr 16, 6:10pm EDT

Tue Apr 16, 5:10pm EDT

Tue Apr 16, 4:10pm EDT

Tue Apr 16, 3:10pm EDT

Tue Apr 16, 2:10pm EDT

Tue Apr 16, 1:10pm EDT

Tue Apr 16, 12:10pm EDT

Tue Apr 16, 11:10am EDT

Tue Apr 16, 10:10am EDT

Tue Apr 16, 9:10am EDT

Tue Apr 16, 8:10am EDT

Tue Apr 16, 7:10am EDT

Tue Apr 16, 6:10am EDT

Tue Apr 16, 5:10am EDT

Tue Apr 16, 4:10am EDT

Tue Apr 16, 3:10am EDT

Tue Apr 16, 2:10am EDT

Tue Apr 16, 1:10am EDT

Tue Apr 16, 12:10am EDT

Mon Apr 15, 11:10pm EDT

Mon Apr 15, 10:10pm EDT

Mon Apr 15, 9:10pm EDT

Mon Apr 15, 8:10pm EDT

Mon Apr 15, 7:10pm EDT

Mon Apr 15, 6:10pm EDT

Mon Apr 15, 5:10pm EDT

Mon Apr 15, 4:10pm EDT

Mon Apr 15, 3:10pm EDT

Mon Apr 15, 2:10pm EDT

Mon Apr 15, 1:10pm EDT

Mon Apr 15, 12:10pm EDT

Mon Apr 15, 11:10am EDT

Mon Apr 15, 10:10am EDT

Mon Apr 15, 9:10am EDT